[[{"header":{"parameterUnit":"m.s-1","parameterCategory":1,"la1":30.2992,"la2":30.254,"lo1":-89.0895,"lo2":-89.0443,"dy":0.0025,"dx":0.0025,"nx":19,"ny":19,"refTime":"2026-04-09T09:00:00:Z","depth":0,"parameterNumber":2,"parameterNumberName":"U-component_of_WINDS"},"data":[0,0,0,-4.4168,-4.417,-4.4203,-4.4203,-4.4305,-4.4306,0,0,0,0,0,0,0,0,0,0,0,-4.4193,-4.4194,-4.4168,-4.417,-4.4203,-4.4203,-4.4304,-4.4306,0,0,0,0,0,0,0,0,0,0,0,-4.4192,-4.4194,-4.4196,-4.417,-4.4203,-4.4203,-4.4304,-4.4258,0,0,0,0,0,0,0,0,0,0,-4.4216,-4.4271,-4.4193,-4.4196,-4.4171,-4.4203,-4.4203,-4.4255,-4.4261,-4.4314,0,-4.4369,0,-4.4339,-4.4316,-4.4317,0,0,0,-4.4145,-4.4267,-4.4244,-4.4196,-4.4171,-4.4203,-4.4181,-4.4258,-4.4265,-4.4323,-4.437,-4.4372,-4.4341,-4.4317,-4.4318,-4.4705,-4.4708,0,0,-4.4143,-4.4217,-4.424,-4.4251,-4.4247,-4.418,-4.4182,-4.4261,-4.4318,-4.437,-4.4374,-4.4343,-4.4319,-4.432,-4.4702,-4.4706,0,0,0,-4.4155,-4.4217,-4.4191,-4.4248,-4.4249,-4.4182,-4.4184,-4.4315,-4.43,-4.4374,-4.4344,-4.4319,-4.4321,-4.4699,-4.4704,-4.4924,0,0,0,-4.4152,-4.4224,-4.4192,-4.4238,-4.4249,-4.4282,-4.4237,-4.4295,-4.4301,-4.4344,-4.4319,-4.4323,-4.4696,-4.4702,-4.4911,-4.5017,0,0,0,-4.4179,-4.4226,-4.4242,-4.4242,-4.4259,-4.4279,-4.4268,-4.4294,-4.4284,-4.4317,-4.4323,-4.4693,-4.47,-4.4899,-4.4997,-4.5143,0,0,0,-4.4229,-4.4438,-4.4247,-4.4469,-4.4259,-4.4414,-4.4267,-4.4378,-4.4433,-4.432,-4.4696,-4.4703,-4.4895,-4.4985,-4.513,-4.528,-4.5349,0,0,-4.4534,-4.4477,-4.4602,-4.4432,-4.464,-4.4403,-4.4643,-4.4623,-4.4559,-4.4661,-4.4669,-4.4915,-4.4996,-4.514,-4.5702,-4.5757,0,0,0,-4.4724,-4.4815,-4.4853,-4.4908,-4.4897,-4.4897,-4.4832,-4.4825,-4.4907,-4.4626,-4.5003,-4.5049,-4.513,-4.5199,-4.5246,-4.5312,-4.4737,-4.4736,-4.4736,-4.5265,-4.517,-4.537,-4.5281,-4.5336,-4.5267,-4.5303,-4.5282,-4.517,-4.5262,-4.5292,-4.5644,-4.5727,-4.5762,-4.5832,-4.5361,-4.5362,-4.5363,-4.5363,-4.5706,-4.5821,-4.5667,-4.5807,-4.5707,-4.5823,-4.5766,-4.5683,-4.5779,-4.5613,-4.568,-4.551,-4.5825,-4.5882,-4.5379,-4.5376,-4.5374,-4.5373,-4.5371,-4.6052,-4.6091,-4.6077,-4.6147,-4.6212,-4.6113,-4.6212,-4.6116,-4.6027,-4.6094,-4.6117,-4.6113,-4.61,-4.6111,-4.6112,-4.6113,-4.6114,-4.6115,-4.6116,-4.6418,-4.6395,-4.6489,-4.6496,-4.6519,-4.6537,-4.647,-4.6491,-4.649,-4.6413,-4.6412,-4.6295,-4.5872,-4.5769,-4.6135,-4.6131,-4.6129,-4.6127,-4.6126,-4.6906,-4.678,-4.6927,-4.695,-4.695,-4.7022,-4.6897,-4.6949,-4.6952,-4.7005,-4.6872,-4.6574,-4.6509,-4.6471,-4.6386,-4.6889,-4.6889,-4.6889,-4.6889,-4.72,-4.7157,-4.7286,-4.733,-4.7362,-4.7264,-4.7437,-4.7387,-4.7317,-4.7314,-4.7226,-4.7104,-4.7069,-4.7026,-4.6976,-4.6895,-4.7516,-4.7517,-4.7517,-4.7496,-4.7452,-4.7616,-4.7543,-4.7536,-4.7533,-4.7693,-4.7752,-4.7645,-4.7541,-4.731,-4.7284,-4.7085,-4.7024,-4.6919,-4.6843,-4.6693,0,0]},{"header":{"parameterUnit":"m.s-1","parameterCategory":1,"la1":30.2992,"la2":30.254,"lo1":-89.0895,"lo2":-89.0443,"dy":0.0025,"dx":0.0025,"nx":19,"ny":19,"refTime":"2026-04-09T09:00:00:Z","depth":0,"parameterNumber":3,"parameterNumberName":"V-component_of_WINDS"},"data":[0,0,0,-0.6638,-0.6638,-0.6653,-0.6653,-0.6666,-0.6666,0,0,0,0,0,0,0,0,0,0,0,-0.6632,-0.6632,-0.6638,-0.6639,-0.6653,-0.6653,-0.6666,-0.6666,0,0,0,0,0,0,0,0,0,0,0,-0.6632,-0.6632,-0.6632,-0.6639,-0.6653,-0.6653,-0.6666,-0.6657,0,0,0,0,0,0,0,0,0,0,-0.6644,-0.6636,-0.6632,-0.6632,-0.6639,-0.6653,-0.6653,-0.6656,-0.6657,-0.6658,0,-0.6659,0,-0.6663,-0.6667,-0.6667,0,0,0,-0.664,-0.6636,-0.6641,-0.6632,-0.6639,-0.6653,-0.6647,-0.6657,-0.6658,-0.6659,-0.6659,-0.6659,-0.6663,-0.6667,-0.6667,-0.6667,-0.6667,0,0,-0.6639,-0.6634,-0.6641,-0.6642,-0.6641,-0.6646,-0.6647,-0.6658,-0.6657,-0.6659,-0.666,-0.6663,-0.6667,-0.6667,-0.6667,-0.6667,0,0,0,-0.6636,-0.6633,-0.6638,-0.6641,-0.6644,-0.6647,-0.6648,-0.6656,-0.6659,-0.666,-0.6663,-0.6667,-0.6667,-0.6667,-0.6667,-0.6659,0,0,0,-0.6635,-0.6631,-0.6638,-0.6635,-0.6644,-0.6651,-0.6646,-0.6658,-0.6659,-0.6663,-0.6667,-0.6667,-0.6667,-0.6667,-0.6659,-0.6656,0,0,0,-0.6632,-0.6631,-0.6632,-0.6634,-0.6641,-0.6651,-0.6654,-0.6658,-0.6661,-0.6667,-0.6667,-0.6667,-0.6667,-0.666,-0.6657,-0.6654,0,0,0,-0.6626,-0.6625,-0.6632,-0.6632,-0.664,-0.6646,-0.6654,-0.6658,-0.6662,-0.6667,-0.6667,-0.6667,-0.666,-0.6657,-0.6654,-0.665,-0.6649,0,0,-0.6622,-0.6625,-0.6625,-0.6632,-0.6635,-0.6644,-0.6646,-0.6654,-0.6659,-0.6664,-0.6664,-0.6659,-0.6657,-0.6654,-0.664,-0.6639,0,0,0,-0.6622,-0.6622,-0.6624,-0.6628,-0.6634,-0.6639,-0.6648,-0.6651,-0.6654,-0.6661,-0.6658,-0.6656,-0.6655,-0.6653,-0.6652,-0.6651,-0.6666,-0.6666,-0.6666,-0.6609,-0.6615,-0.6616,-0.6624,-0.6627,-0.6635,-0.6638,-0.6643,-0.6649,-0.6647,-0.6649,-0.664,-0.6638,-0.6637,-0.6635,-0.6648,-0.6648,-0.6648,-0.6648,-0.6603,-0.6604,-0.6611,-0.6614,-0.662,-0.6622,-0.6629,-0.6633,-0.6635,-0.664,-0.6639,-0.6644,-0.6635,-0.6634,-0.6647,-0.6647,-0.6647,-0.6647,-0.6647,-0.6596,-0.6597,-0.66,-0.6605,-0.6608,-0.6615,-0.6616,-0.6622,-0.6627,-0.6626,-0.6627,-0.6627,-0.6627,-0.6626,-0.6626,-0.6626,-0.6626,-0.6626,-0.6626,-0.6586,-0.659,-0.6591,-0.6597,-0.6599,-0.6602,-0.6609,-0.6611,-0.6614,-0.6618,-0.6618,-0.6623,-0.6633,-0.6636,-0.6625,-0.6625,-0.6625,-0.6626,-0.6626,-0.6578,-0.658,-0.6582,-0.6584,-0.659,-0.6591,-0.6598,-0.66,-0.6603,-0.6602,-0.6607,-0.6614,-0.6617,-0.6618,-0.662,-0.6607,-0.6607,-0.6607,-0.6607,-0.6571,-0.6573,-0.6575,-0.6578,-0.6581,-0.6586,-0.6585,-0.659,-0.6595,-0.6596,-0.6598,-0.6601,-0.6602,-0.6605,-0.6606,-0.6608,-0.6591,-0.6591,-0.6591,-0.6566,-0.6568,-0.6568,-0.6573,-0.6577,-0.658,-0.658,-0.6581,-0.6587,-0.6591,-0.6597,-0.6597,-0.6602,-0.6604,-0.6608,-0.661,-0.6614,0,0]}]]